Stations météo

Publicité
Le Havre/Octeville, France (7046): Température de l'air & dewpoint: 12.08.2017 03:00:00 - 18.08.2017 03:00:00 (CEST)Le Havre/Octeville, France (7046): Vitesse du vent & gusts: 12.08.2017 03:00:00 - 18.08.2017 03:00:00 (CEST)Le Havre/Octeville, France (7046): Direction du vent: 12.08.2017 03:00:00 - 18.08.2017 03:00:00 (CEST)Le Havre/Octeville, France (7046): reduced air pressure: 12.08.2017 03:00:00 - 18.08.2017 03:00:00 (CEST)Le Havre/Octeville, France (7046): visibility: 12.08.2017 03:00:00 - 18.08.2017 03:00:00 (CEST)Le Havre/Octeville, France (7046): Quantités de précipitations: 12.08.2017 03:00:00 - 18.08.2017 03:00:00 (CEST)
Date & Time tt [°C] td [°C] ff [km/h] ff [knt] fx [km/h] fx [knt] dd ppp [hPa] vv [km] rr [mm]
18.08.2017 03:00:00 17,9 16,9 8 5 14 7 SW 1014,2 23 0,0
18.08.2017 02:00:00 17,8 16,8 8 4 11 6 WSW 1014,8 23 0,0
18.08.2017 01:00:00 17,4 16,3 0 0 3 2 N 1014,7 29 0,0
18.08.2017 00:00:00 17,4 16,4 2 1 10 5 E 1015,1 23 0,0
17.08.2017 23:00:00 17,9 15,7 3 2 7 4 W 1015,2 49 0,0
17.08.2017 22:00:00 19,1 15,6 3 2 9 5 SSW 1015,4 56 0,0
17.08.2017 21:00:00 19,0 15,3 2 1 10 6 NNE 1015,1 60 0,0
17.08.2017 20:00:00 19,8 15,6 8 4 20 11 NW 1015,4 59 0,0
17.08.2017 19:00:00 20,7 16,7 10 5 19 10 W 1015,4 46 0,0
17.08.2017 18:00:00 20,6 16,2 10 6 21 11 W 1015,8 60 0,0
17.08.2017 17:00:00 21,0 16,4 14 7 27 14 SW 1015,8 44 0,0
17.08.2017 16:00:00 20,1 16,1 18 10 29 16 WSW 1015,9 60 0,0
17.08.2017 15:00:00 19,0 16,0 24 13 39 21 WSW 1016,2 46 0,0
17.08.2017 14:00:00 19,0 17,7 19 11 32 18 SW 1015,7 51 0,0
17.08.2017 13:00:00 17,8 17,3 23 13 46 25 WSW 1015,8 40 1,2
17.08.2017 12:00:00 20,0 18,3 21 12 37 20 SSW 1015,2 56 0,0
17.08.2017 11:00:00 19,1 18,1 21 12 36 20 S 1015,1 59 0,0
17.08.2017 10:00:00 18,4 17,6 22 12 37 20 S 1014,9 60 0,2
17.08.2017 09:00:00 17,8 17,2 21 12 37 20 S 1014,6 14 0,0
17.08.2017 08:00:00 17,4 16,9 21 11 40 21 S 1014,5 30 0,2
17.08.2017 07:00:00 16,5 16,2 21 11 39 21 S 1014,7 13 2,5
17.08.2017 06:00:00 17,0 15,5 20 11 37 20 S 1014,5 4,0 3,2
17.08.2017 05:00:00 18,3 14,8 20 11 39 21 S 1014,5 29 0,2
17.08.2017 04:00:00 18,7 14,4 20 11 33 18 S 1015,3 59 0,0
17.08.2017 03:00:00 18,8 14,1 16 8 27 15 S 1015,6 60 0,0
17.08.2017 02:00:00 18,9 14,0 13 7 25 14 S 1016,5 60 0,0
17.08.2017 01:00:00 19,5 14,1 15 8 24 13 S 1017,1 60 0,0
17.08.2017 00:00:00 17,4 14,3 4 2 13 7 ESE 1017,5 19 0,0
16.08.2017 23:00:00 17,2 13,1 10 5 13 7 E 1018,0 29 0,0
16.08.2017 22:00:00 17,0 11,3 9 5 12 7 ENE 1018,6 60 0,0
16.08.2017 21:00:00 17,8 11,6 8 4 23 12 N 1018,7 60 0,0
16.08.2017 20:00:00 18,8 12,3 17 9 22 12 NNW 1018,9 60 0,0
16.08.2017 19:00:00 20,5 13,2 14 8 17 9 NNW 1018,6 60 0,0
16.08.2017 18:00:00 21,7 11,7 11 6 18 10 N 1019,0 55 0,0
16.08.2017 17:00:00 20,8 11,7 13 7 22 12 N 1019,9 50 0,0
16.08.2017 16:00:00 18,9 14,4 16 9 38 20 NW 1020,6 59 0,0
16.08.2017 15:00:00 19,5 14,9 12 7 19 10 NW 1020,3 59 0,0
16.08.2017 14:00:00 20,6 14,0 9 5 20 11 WSW 1020,5 60 0,0
16.08.2017 13:00:00 18,9 15,0 11 6 18 10 W 1021,4 60 0,0
16.08.2017 12:00:00 17,7 14,8 6 3 15 8 S 1021,8 57 0,0
16.08.2017 11:00:00 16,4 14,4 7 4 10 6 SSW 1021,9 31 0,0
16.08.2017 10:00:00 15,9 14,4 5 3 9 5 SSE 1021,7 27 0,0
16.08.2017 09:00:00 15,1 14,3 6 3 10 5 SE 1021,9 13 0,0
16.08.2017 08:00:00 13,0 12,4 4 2 9 5 - 1021,7 10 0,0
16.08.2017 07:00:00 12,9 11,6 3 2 9 5 SSE 1021,4 19 0,0
16.08.2017 06:00:00 12,6 11,5 2 1 4 2 S 1021,1 29 0,0
16.08.2017 05:00:00 12,9 11,8 3 2 5 3 WNW 1021,1 52 0,0
16.08.2017 04:00:00 14,2 12,8 4 2 11 6 WSW 1021,5 49 0,0
16.08.2017 03:00:00 14,1 12,3 6 4 11 6 W 1021,4 57 0,0
16.08.2017 02:00:00 14,9 13,1 5 3 16 9 WSW 1021,6 52 0,0
16.08.2017 01:00:00 15,2 13,0 12 7 18 10 WNW 1021,4 58 0,0
16.08.2017 00:00:00 15,4 13,4 12 7 21 11 WNW 1021,1 56 0,0
15.08.2017 23:00:00 15,7 13,5 16 9 22 12 NW 1020,9 60 0,0
15.08.2017 22:00:00 15,6 13,1 13 7 19 10 NW 1020,5 60 0,0
15.08.2017 21:00:00 16,3 13,2 11 6 18 10 WNW 1019,8 60 0,0
15.08.2017 20:00:00 17,5 14,4 12 6 24 13 WNW 1019,1 60 0,0
15.08.2017 19:00:00 18,3 14,6 16 9 22 12 WNW 1018,7 20 0,0
15.08.2017 18:00:00 18,8 15,1 15 8 22 12 WNW 1018,7 60 0,0
15.08.2017 17:00:00 19,3 15,4 14 8 28 15 WNW 1018,5 57 0,0
15.08.2017 16:00:00 19,0 16,4 20 11 31 17 WNW 1018,2 59 0,0
15.08.2017 15:00:00 19,4 16,2 19 11 28 15 WNW 1017,8 20 0,0
15.08.2017 14:00:00 18,4 16,0 16 9 24 13 W 1017,5 20 0,0
15.08.2017 13:00:00 19,3 16,9 14 8 21 11 NW 1016,5 15 0,0
15.08.2017 12:00:00 18,8 16,9 11 6 19 10 WNW 1015,9 16 0,0
15.08.2017 11:00:00 18,6 17,1 14 7 21 11 NW 1015,1 34 0,0
15.08.2017 10:00:00 17,9 16,9 15 8 20 11 NW 1014,3 16 0,0
15.08.2017 09:00:00 17,9 16,6 12 6 16 8 NNW 1013,8 47 0,0
15.08.2017 08:00:00 17,8 16,8 10 5 14 8 NNW 1012,8 20 0,0
15.08.2017 07:00:00 17,0 15,9 6 3 18 10 ENE 1011,9 20 0,0
15.08.2017 06:00:00 17,3 15,5 8 5 29 16 NNE 1011,4 29 0,0
15.08.2017 05:00:00 18,4 15,8 17 9 49 26 N 1012,0 17 0,0
15.08.2017 04:00:00 20,6 13,8 11 6 20 11 E 1011,6 58 0,0
15.08.2017 03:00:00 18,4 14,3 11 6 16 9 E 1012,5 59 0,0
15.08.2017 02:00:00 17,5 14,0 9 5 11 6 E 1013,3 54 0,0
15.08.2017 01:00:00 17,3 14,0 10 5 13 7 E 1013,6 48 0,0
15.08.2017 00:00:00 17,7 14,4 10 6 14 8 E 1014,0 42 0,0
14.08.2017 23:00:00 18,5 14,6 9 5 13 7 E 1014,5 43 0,0
14.08.2017 22:00:00 19,6 14,4 9 5 14 8 E 1014,7 60 0,0
14.08.2017 21:00:00 20,1 14,5 14 8 22 12 ENE 1013,7 52 0,0
14.08.2017 20:00:00 20,9 14,3 14 8 19 10 ENE 1014,3 57 0,0
14.08.2017 19:00:00 22,2 13,8 11 6 16 8 ENE 1014,9 60 0,0
14.08.2017 18:00:00 22,5 14,1 11 6 22 12 N 1015,5 20 0,0
14.08.2017 17:00:00 21,8 13,2 15 8 19 10 NNW 1015,9 60 0,0
14.08.2017 16:00:00 21,1 13,5 12 7 19 10 NNW 1016,2 49 0,0
14.08.2017 15:00:00 21,0 14,2 13 7 21 11 NW 1016,6 60 0,0
14.08.2017 14:00:00 22,4 11,5 11 6 24 13 SSE 1017,1 60 0,0
14.08.2017 13:00:00 21,5 12,1 11 6 19 10 S 1017,6 54 0,0
14.08.2017 12:00:00 20,7 12,1 8 5 17 9 SE 1018,1 20 0,0
14.08.2017 11:00:00 19,3 11,3 9 5 17 9 SE 1018,5 52 0,0
14.08.2017 10:00:00 17,3 12,0 9 5 15 8 SE 1019,0 50 0,0
14.08.2017 09:00:00 16,1 12,1 10 5 16 8 ESE 1018,9 33 0,0
14.08.2017 08:00:00 13,4 11,5 5 3 12 6 E 1018,9 27 0,0
14.08.2017 07:00:00 12,1 10,5 10 5 12 6 E 1018,9 27 0,0
14.08.2017 06:00:00 12,5 10,4 9 5 11 6 ENE 1019,2 41 0,0
14.08.2017 05:00:00 12,9 10,1 7 4 9 5 E 1019,5 54 0,0
14.08.2017 04:00:00 13,2 10,0 5 3 6 3 ENE 1019,9 60 0,0
14.08.2017 03:00:00 13,5 10,5 4 2 8 4 ENE 1020,4 60 0,0
14.08.2017 02:00:00 13,2 10,4 4 2 6 3 E 1020,9 54 0,0
14.08.2017 01:00:00 14,2 11,0 4 2 7 4 E 1021,0 51 0,0
14.08.2017 00:00:00 14,7 11,1 5 3 9 5 E 1021,4 54 0,0
13.08.2017 23:00:00 14,9 11,5 7 4 14 7 ENE 1021,6 53 0,0
13.08.2017 22:00:00 15,1 12,0 9 5 14 7 NE 1021,6 49 0,0
13.08.2017 21:00:00 16,6 12,1 9 5 16 9 NE 1021,2 57 0,0
13.08.2017 20:00:00 18,4 12,2 10 6 21 11 NE 1021,1 56 0,0
13.08.2017 19:00:00 18,3 12,9 16 9 24 13 N 1021,2 60 0,0
13.08.2017 18:00:00 18,5 13,6 18 10 23 12 NNW 1021,4 60 0,0
13.08.2017 17:00:00 18,6 13,9 12 7 21 11 NNW 1021,7 55 0,0
13.08.2017 16:00:00 18,6 14,1 11 6 18 10 NW 1022,2 19 0,0
13.08.2017 15:00:00 18,5 14,0 11 6 20 11 W 1022,2 35 0,0
13.08.2017 14:00:00 18,5 14,8 13 7 21 12 W 1022,4 20 0,0
13.08.2017 13:00:00 18,2 14,3 15 8 21 11 WNW 1022,3 20 0,0
13.08.2017 12:00:00 18,1 14,8 11 6 18 10 W 1022,3 56 0,0
13.08.2017 11:00:00 17,3 14,0 9 5 15 8 W 1022,0 19 0,0
13.08.2017 10:00:00 16,5 14,0 10 5 18 10 WNW 1021,8 52 0,0
13.08.2017 09:00:00 16,3 13,8 11 6 16 9 WNW 1021,4 54 0,0
13.08.2017 08:00:00 15,9 13,4 11 6 21 11 W 1021,0 50 0,0
13.08.2017 07:00:00 15,9 13,2 13 7 21 12 WNW 1020,7 56 0,0
13.08.2017 06:00:00 16,1 13,6 11 6 20 11 WNW 1020,6 58 0,0
13.08.2017 05:00:00 16,1 13,6 11 6 27 14 W 1020,6 51 0,0
13.08.2017 04:00:00 16,0 13,7 15 8 29 16 W 1020,6 47 0,0
13.08.2017 03:00:00 15,5 13,7 21 11 29 15 W 1020,8 45 0,0
13.08.2017 02:00:00 15,4 13,2 20 11 34 19 W 1021,1 54 0,0
13.08.2017 01:00:00 15,6 12,3 25 13 37 20 W 1021,2 60 0,0
13.08.2017 00:00:00 15,9 11,1 23 13 41 22 W 1020,7 60 0,0
12.08.2017 23:00:00 16,1 10,2 21 11 35 19 W 1020,8 60 0,0
12.08.2017 22:00:00 16,3 9,7 25 14 39 21 W 1020,6 60 0,0
12.08.2017 21:00:00 16,2 10,9 23 12 45 24 W 1020,2 60 0,0
12.08.2017 20:00:00 16,4 11,5 24 13 42 23 W 1020,1 51 0,0
12.08.2017 19:00:00 17,5 13,8 26 14 40 22 W 1019,9 20 0,0
12.08.2017 18:00:00 17,3 14,2 24 13 40 22 WNW 1019,7 56 0,0
12.08.2017 17:00:00 16,5 15,4 24 13 43 23 WNW 1019,4 20 0,0
12.08.2017 16:00:00 16,8 16,3 22 12 39 21 W 1019,1 20 0,0
12.08.2017 15:00:00 16,9 16,7 20 11 39 21 W 1018,9 38 0,8
12.08.2017 14:00:00 17,3 17,1 24 13 38 21 SW 1018,5 1,8 1,2
12.08.2017 13:00:00 17,1 16,6 20 11 35 19 SSW 1018,6 6 0,4
12.08.2017 12:00:00 16,8 16,0 23 12 36 19 SSW 1018,6 7 0,4
12.08.2017 11:00:00 16,7 15,7 21 11 32 17 SSW 1018,4 12 0,2
12.08.2017 10:00:00 16,1 15,3 22 12 39 21 SSW 1018,2 36 0,0
12.08.2017 09:00:00 15,8 15,0 24 13 38 20 SSW 1018,1 24 0,0
12.08.2017 08:00:00 15,6 15,0 23 12 43 23 SSW 1017,8 4,0 1,2
12.08.2017 07:00:00 15,9 14,8 25 14 46 25 SW 1017,5 18 0,0
12.08.2017 06:00:00 15,7 14,2 30 16 46 25 SW 1017,6 35 0,0
12.08.2017 05:00:00 15,7 14,4 29 16 46 25 SW 1018,0 33 0,0
12.08.2017 04:00:00 15,6 14,1 28 15 45 24 SW 1018,5 33 0,0
12.08.2017 03:00:00 15,2 14,9 29 16 44 24 SW 1018,9 4,8 0,0

tt = Température de l'air
td = dewpoint
ff = Vitesse du vent
fx = gusts
dd = Direction du vent
ppp = reduced air pressure
vv = visibility
rr = Quantités de précipitations

stations d'obs. à proximité